Aerbrava en el facebook Aerbrava en el twitter Google+ Instagram Aerbrava en el youtube tumblr flikr pinterest
Aerbrava in English aerbrava en Español
Escola de Pilots
Telèfon 972234126 972 23 41 26
 
Aerbrava in English aerbrava en Español
Aerbrava - meteorologia

Informació meteorològica aeronàutica

 

En aquest apartat apareix la informació meteorològica aeronàutica que és utilitzada a les pràctiques dels alumnes de l’Escola de Pilots del nostre centre durant la seva formació, pel que pot no ser actual i s’hauria d’utilitzar pel seu propi compte i risc. AERBRAVA no es fa responsable del seu ús.

 

TEMPS ACTUAL

Satèl·lit Meteorològic

sat24.com

Servei Meteorològic de Catalunya

 

LEGE 202330Z 00000KT CAVOK 13/11 Q1019
LEGE 202300Z 00000KT CAVOK 13/11 Q1019
LEGE 202230Z 00000KT CAVOK 14/12 Q1019
LEGE 202200Z 00000KT 9999 FEW045 13/12 Q1019
TAF LEGE 202300Z 2100/2124 VRB03KT 9999 FEW030 TX27/2113Z TN10/2106Z
BECMG 2111/2113 16010KT
TEMPO 2114/2116 16013G23KT
BECMG 2118/2120 35006KT

Aviation Weather

 
Aerbrava en el facebook Aerbrava en el twitter Google+ Instagram Aerbrava en el youtube tumblr flikr pinterest

¡CSS Vàlid!